Theta_e
311 310 310 311 310 310 311 312 313 314 313 313 314 316 317 317 325 331 333 331 331 328 328 329 331 330 331 330 333 334 334 331 330 330 329 325 319 308 310 306 303 302 300
309 309 309 310 310 310 310 312 313 313 313 313 313 315 316 317 322 331 331 328 328 329 330 331 332 332 332 332 333 332 335 331 331 332 324 318 310 307 305 305 301 299 299
308 308 307 308 307 308 309 312 313 312 313 314 318 321 317 318 325 329 329 327 327 328 331 330 330 331 331 331 332 332 334 331 330 324 315 307 305 307 303 302 298 299 300
307 306 306 306 306 307 309 312 313 311 313 314 320 320 317 322 328 328 328 326 328 329 329 326 325 326 327 326 325 325 325 327 327 318 307 307 310 304 300 298 299 301 301
306 305 305 305 305 307 309 311 312 311 316 317 318 317 316 323 327 327 327 327 329 326 322 323 323 320 320 318 318 318 317 318 314 312 312 305 302 299 297 298 299 300 300
303 303 304 304 304 306 307 310 311 312 317 316 316 316 316 323 327 326 326 327 325 322 322 321 321 317 314 313 311 311 311 312 306 304 303 304 298 297 298 299 299 299 300
302 302 302 302 304 305 307 308 310 313 315 315 315 315 317 323 323 324 325 325 322 321 319 320 318 314 312 307 304 303 303 302 302 299 297 297 297 298 300 300 299 300 299
301 301 302 303 303 304 304 308 311 313 315 313 314 316 317 321 321 323 323 321 320 318 315 313 312 309 308 307 305 300 297 297 297 297 298 299 300 300 300 299 300 300 299
301 302 302 302 302 302 305 310 311 315 316 313 314 317 320 318 318 322 321 321 318 314 310 308 309 305 300 298 297 297 297 297 298 299 300 300 300 300 299 299 300 299 298
300 300 300 302 302 303 307 309 313 316 315 315 315 318 317 317 318 319 321 320 315 307 302 299 298 298 297 297 297 297 297 297 298 298 299 300 300 299 298 299 299 300 299
298 299 299 300 301 304 308 310 312 314 314 315 316 315 314 315 316 317 318 317 313 305 301 300 299 298 298 298 298 297 296 296 297 298 300 301 300 298 298 298 299 299 300
298 298 299 300 303 306 308 312 313 313 314 315 316 316 313 312 312 313 313 309 304 304 298 299 299 299 299 298 297 297 297 297 297 299 300 300 298 298 298 298 298 299 299
298 298 301 304 306 308 310 312 311 313 315 314 317 315 310 307 305 303 300 299 300 300 299 299 299 299 298 297 296 296 297 297 296 298 299 297 296 297 298 298 298 299 299
299 303 304 306 309 310 311 310 312 312 312 315 316 310 306 303 301 300 299 299 299 299 299 298 298 298 297 297 297 296 296 296 296 296 297 296 297 298 297 298 298 299 299
302 304 308 311 311 310 308 307 311 311 312 315 312 309 306 302 300 299 299 299 299 299 298 298 297 297 297 296 296 296 296 296 297 297 297 296 295 297 297 298 298 298 299
306 308 309 309 309 308 308 305 305 307 309 312 312 310 302 301 299 298 298 299 298 297 297 297 296 296 296 296 296 295 295 295 295 295 296 296 295 296 297 297 298 298 299
308 308 307 307 308 307 307 308 306 302 307 306 304 300 298 297 297 297 297 297 296 296 295 295 294 294 295 295 295 295 295 295 295 294 294 295 294 294 296 297 297 298 298
308 309 309 307 307 307 307 306 305 303 298 296 296 296 297 298 297 296 296 295 295 295 294 293 292 293 294 294 294 294 294 294 294 293 293 293 294 293 295 296 297 297 298
308 308 307 305 304 305 304 302 300 297 296 297 297 298 297 297 297 297 296 295 294 294 294 293 292 292 292 293 293 293 293 293 293 293 292 292 293 293 293 295 296 297 297
304 304 304 303 303 299 297 296 296 297 298 298 299 297 297 297 296 295 294 294 294 294 293 293 293 292 292 291 291 291 292 292 291 291 292 292 291 292 292 293 295 296 297
302 301 303 302 296 296 297 297 297 298 299 298 297 297 297 295 295 294 294 294 294 293 293 292 292 292 291 291 290 290 290 290 290 290 290 291 291 291 291 292 293 294 296
299 299 299 298 297 297 297 298 298 300 298 296 296 296 295 295 295 295 294 294 293 292 292 291 291 291 291 290 289 289 289 289 289 289 289 289 290 290 290 291 292 292 296
300 299 297 297 297 298 298 299 298 297 296 296 295 295 295 294 294 294 293 293 292 290 290 290 290 290 290 289 289 289 289 289 288 288 288 288 289 289 289 289 290 291 296
298 296 296 297 297 299 298 296 296 296 295 295 295 294 294 294 293 292 290 290 290 290 289 289 289 289 290 290 289 289 288 288 288 288 288 288 288 287 287 288 288 289 295
298 297 298 299 298 297 296 295 295 295 295 294 294 294 293 292 290 290 290 290 290 289 289 289 290 290 290 289 289 288 288 288 288 288 288 287 287 287 287 287 290 292 294
298 297 296 296 295 295 295 295 295 295 294 294 294 293 292 290 290 290 290 290 289 290 290 290 290 289 289 289 288 288 288 288 287 288 288 288 287 287 287 287 291 293 294
Wind_Speed
33 36 38 37 36 35 32 31 32 28 24 26 26 23 26 28 27 21 17 18 23 23 22 23 22 25 27 31 32 33 34 44 39 33 28 29 29 26 22 12 13 12 12
32 34 36 39 39 37 33 27 28 25 21 24 27 25 24 25 27 23 18 17 20 20 20 19 19 22 25 29 31 32 38 40 43 34 27 28 28 23 17 8 15 11 10
37 39 40 38 37 35 29 25 23 20 19 18 18 16 22 22 24 19 14 17 18 20 17 12 10 14 18 21 26 32 39 41 37 29 33 32 27 17 9 6 10 9 10
33 37 40 38 34 27 24 21 20 15 17 14 12 15 18 20 19 14 11 15 15 12 7 5 5 6 10 14 16 20 26 33 34 32 32 21 15 9 10 9 9 10 9
33 41 38 30 26 21 20 18 17 14 13 9 10 16 18 18 13 11 12 12 8 4 2 0 4 4 5 4 5 8 14 19 25 29 27 19 16 13 9 7 6 7 8
33 27 30 28 23 20 19 17 16 11 5 2 9 16 17 15 9 7 10 10 8 3 4 4 6 7 9 8 11 13 14 21 25 25 24 15 13 9 6 4 2 2 2
35 31 29 25 23 17 19 18 13 9 3 4 13 15 13 8 5 10 12 12 9 8 8 9 14 17 21 28 28 25 23 19 15 15 18 13 11 10 8 7 5 4 7
33 31 27 23 21 20 22 14 8 7 6 10 11 10 10 1 5 11 12 12 14 15 17 19 20 21 20 21 22 22 26 25 21 18 16 19 17 16 12 10 4 5 10
30 25 22 24 27 22 15 7 5 5 8 8 6 4 2 9 11 13 14 14 18 23 25 24 25 28 28 25 24 25 24 22 22 22 22 19 18 16 15 11 9 5 8
26 27 26 13 11 14 10 3 6 10 8 4 4 6 10 17 17 16 14 17 26 29 29 31 31 32 29 18 18 19 22 21 19 19 19 18 16 15 16 18 18 16 13
20 21 20 17 16 13 7 8 8 10 9 7 8 16 16 17 16 17 18 20 25 31 31 31 29 26 21 20 17 17 20 18 17 16 18 18 16 15 18 18 19 18 17
16 17 13 16 15 11 6 16 12 13 13 18 22 23 20 19 21 24 24 26 31 32 33 29 26 23 19 19 15 16 15 13 16 17 17 17 17 16 15 14 18 20 18
11 13 12 12 8 8 21 18 19 19 24 27 23 25 25 23 25 25 29 31 31 33 31 28 24 22 22 19 16 15 14 11 15 18 18 19 17 15 14 14 15 16 15
11 11 3 15 23 27 22 23 21 31 31 29 23 29 31 31 31 31 31 30 30 31 30 28 25 21 17 19 14 11 12 11 13 18 20 21 19 15 14 14 15 16 14
9 19 28 27 28 29 29 26 28 27 26 26 27 30 34 37 35 32 32 30 29 26 24 22 20 20 18 17 14 13 14 14 14 15 15 17 18 14 15 15 14 14 15
30 28 28 28 28 27 28 30 24 25 24 22 23 26 34 35 35 32 30 24 22 20 24 21 18 17 16 15 14 14 12 12 12 11 13 12 16 16 14 15 14 14 18
28 29 28 30 29 29 29 28 31 26 24 29 35 38 40 39 32 28 25 23 22 21 23 20 19 18 18 17 15 14 14 12 8 10 14 14 13 15 12 14 16 14 16
27 27 27 28 28 28 30 34 34 40 45 42 39 39 35 30 28 27 27 25 25 23 23 23 22 20 19 17 15 14 12 10 11 12 14 14 12 14 14 16 16 16 17
26 27 26 29 32 36 39 43 48 50 49 46 39 33 26 25 26 25 23 25 25 24 23 23 21 21 19 16 13 12 11 12 12 12 13 14 14 16 18 15 14 13 16
27 29 32 38 43 48 51 55 55 50 44 38 35 30 27 27 25 25 24 23 23 22 20 20 19 19 19 17 16 14 13 13 15 14 14 16 17 15 14 14 12 12 15
32 33 38 44 51 48 48 46 44 45 41 37 29 25 23 27 28 25 23 21 20 18 17 17 16 17 18 18 17 16 16 16 17 17 16 14 14 16 14 11 11 10 13
41 43 46 50 49 46 47 47 42 38 35 31 28 26 24 25 24 23 21 19 17 16 14 14 16 17 18 18 18 19 19 18 17 16 16 15 14 15 15 13 13 15 11
41 44 45 43 47 47 43 40 36 33 32 31 30 28 25 24 22 20 18 17 16 16 16 16 18 19 19 20 20 19 19 19 20 18 17 17 16 16 16 15 14 15 12
42 42 45 45 41 41 40 36 32 31 31 29 27 24 22 19 17 19 20 20 19 20 20 20 20 20 20 19 20 21 21 19 20 21 20 18 17 18 18 16 15 14 12
40 42 42 41 39 38 36 31 31 30 28 26 24 21 20 20 22 21 20 19 20 20 21 20 19 18 18 18 20 22 23 21 20 21 21 20 21 21 21 20 17 13 13
42 42 40 37 35 33 31 30 28 26 25 22 21 20 20 22 22 21 20 20 21 21 20 19 19 18 18 19 20 21 22 22 21 20 20 21 22 23 23 21 19 14 13
Wind_Direction
299 300 299 299 302 308 298 289 289 283 273 276 279 284 296 296 285 290 274 272 270 276 286 282 272 265 259 261 253 251 238 239 233 221 230 222 200 201 214 233 260 261 271
296 297 296 297 299 299 299 294 291 289 267 273 276 280 291 296 283 290 269 281 280 274 275 276 268 255 249 250 246 248 230 229 225 230 209 197 194 196 192 199 251 263 273
297 294 296 296 299 298 293 295 292 283 266 272 279 289 290 292 287 289 273 276 272 268 267 273 271 275 264 264 260 234 226 225 226 210 182 175 171 179 175 214 252 259 255
292 295 299 299 298 294 288 292 298 271 273 271 279 293 293 301 283 286 258 266 264 262 267 286 294 294 290 280 265 249 233 228 220 195 162 157 159 159 208 214 217 233 250
292 295 298 299 301 294 287 288 295 274 284 271 298 291 290 295 280 274 244 246 239 219 288 316 67 31 6 325 286 224 196 176 161 158 151 142 147 166 203 198 205 238 276
297 294 295 300 299 297 293 284 295 279 284 295 286 288 294 287 267 237 234 202 179 153 121 80 78 93 92 101 110 115 125 136 129 126 126 146 143 139 168 141 105 308 316
291 287 287 296 288 297 292 284 291 275 256 261 271 281 297 292 220 192 174 163 153 126 98 112 112 105 115 113 107 104 101 100 95 102 110 128 130 122 102 77 36 48 58
282 281 279 282 277 284 283 280 270 273 233 257 269 288 300 116 166 173 168 143 120 110 110 111 114 114 112 109 104 98 90 89 98 106 111 112 107 97 70 38 41 123 54
277 265 264 275 277 280 276 272 263 232 219 241 249 296 263 142 156 150 144 126 123 115 112 115 118 111 92 87 101 107 110 108 111 106 102 100 96 82 52 56 62 123 75
267 267 275 262 251 253 232 260 267 203 210 203 173 157 147 138 147 145 144 142 129 124 119 113 107 103 99 108 117 118 115 114 117 107 104 104 94 67 52 60 61 56 53
273 266 255 248 242 227 196 244 228 205 177 151 136 129 125 133 143 152 149 143 140 133 128 120 112 109 115 118 117 112 109 108 104 108 107 107 89 64 58 56 48 46 41
262 255 234 223 217 196 243 194 198 177 162 139 133 123 124 134 148 151 147 143 140 136 127 124 123 123 124 116 113 110 118 112 100 102 100 89 67 59 62 53 40 40 39
243 211 203 179 188 184 186 185 168 166 154 134 121 125 124 131 134 136 135 134 131 125 123 120 122 122 122 124 108 110 127 111 90 96 94 72 59 68 73 57 43 37 40
177 154 137 141 154 167 175 171 165 154 142 127 131 131 131 130 131 132 130 129 126 122 117 116 117 114 117 122 130 112 104 97 85 90 86 70 72 78 73 61 49 39 41
126 139 146 155 159 161 158 153 147 144 139 132 139 140 139 134 135 136 134 129 126 124 123 113 112 120 126 123 116 103 98 100 97 94 85 72 66 69 63 56 50 38 44
138 146 149 148 151 151 145 138 140 142 138 137 141 140 131 131 134 135 126 118 112 115 111 116 115 117 116 115 114 109 100 89 83 84 87 81 59 60 61 57 47 36 30
142 140 141 138 140 136 136 135 131 129 128 121 124 124 125 126 127 125 121 110 105 108 108 112 113 114 113 110 107 101 94 88 86 72 67 73 58 48 57 52 46 36 29
138 137 136 132 131 131 131 128 125 120 116 116 119 121 120 119 117 118 112 114 117 112 109 106 104 109 111 108 103 98 97 88 73 63 57 57 57 48 55 52 45 30 24
131 131 130 129 128 128 127 126 124 122 120 120 122 123 123 128 132 125 123 119 116 113 109 103 99 98 98 99 102 98 92 81 69 61 60 53 47 36 41 47 40 31 26
124 128 129 129 128 126 125 123 122 122 123 126 124 123 130 128 122 122 121 117 113 109 103 100 98 93 91 87 80 77 75 73 67 59 49 37 31 30 35 39 38 31 29
126 129 130 131 126 118 118 119 124 129 126 119 127 132 130 124 124 123 119 110 102 101 101 100 99 93 83 74 68 65 65 60 49 41 34 32 26 31 33 30 27 24 23
127 129 130 126 123 122 124 124 125 128 126 129 129 129 127 122 124 121 116 111 107 103 103 103 97 86 79 72 64 55 49 48 46 42 34 28 25 27 26 27 26 31 48
130 129 123 121 126 131 135 133 130 132 131 128 124 125 126 124 120 117 115 108 105 103 102 97 89 83 74 65 58 53 50 50 45 40 33 28 27 25 23 27 28 33 60
125 121 129 136 138 135 131 132 129 128 125 124 127 127 125 122 119 114 109 108 106 102 97 91 84 76 69 64 58 54 51 50 44 39 35 35 34 32 33 33 31 37 62
128 130 130 130 132 135 136 130 128 126 127 129 128 125 121 117 114 112 111 110 104 99 92 83 78 74 69 64 57 53 49 45 44 41 42 41 40 39 36 36 39 58 66
127 129 131 131 131 132 132 130 130 130 129 126 124 119 116 117 115 113 111 106 98 92 87 82 76 71 67 62 56 50 48 45 43 42 40 41 42 42 39 40 45 62 67